Ohio State University, OH

11:42 AM EDT on May 26, 2017 (GMT -0400)
Ohio State University

Weather History for KOSU - January, 2012

Change the Weather History Date:

Friday, January 20, 2012

  Actual Average Record
Temperature  
Mean Temperature 14 °F -  
Max Temperature 21 °F 32 °F 59 °F (2017)
Min Temperature 7 °F 17 °F 1 °F (2008)
Degree Days  
Heating Degree Days 51    
Moisture  
Dew Point 12 °F    
Average Humidity 79    
Maximum Humidity 93    
Minimum Humidity 58    
Precipitation  
Precipitation 0.07 in - - ()
Sea Level Pressure  
Sea Level Pressure 30.11 in    
Wind  
Wind Speed 6 mph (NE)    
Max Wind Speed 12 mph    
Max Gust Speed -    
Visibility 7 miles    
Events Rain , Snow    
Averages and records for this station are not official NWS values.
T = Trace of Precipitation, MM = Missing Value Source: NWS Daily Summary

Daily Weather History Graph

Daily Weather History Graph

Search for Another Location

Airport or City:

Trip Planner

Search our weather history database for the weather conditions in past years. The results will help you decide how hot, cold, wet, or windy it might be!

Date:

Astronomy

Jan. 20, 2012 Rise Set
Actual Time 7:50 AM EST 5:36 PM EST
Civil Twilight 7:20 AM EST 6:05 PM EST
Nautical Twilight 6:47 AM EST 6:39 PM EST
Astronomical Twilight 6:15 AM EST 7:11 PM EST
Moon 5:26 AM EST (1/20) 3:06 PM EST (1/20)
Length of Visible Light 10h 45m
Length of Day
9h 46m
Waning Crescent, 8% of the Moon is Illuminated
Jan 20
Waning Crescent
Jan 23
New
Jan 30
First Quarter
Feb 7
Full
Feb 14
Last Quarter

Hourly Weather History & Observations

Time (EST) Temp. Windchill Dew Point Humidity Pressure Visibility Wind Dir Wind Speed Gust Speed Precip Events Conditions
12:53 AM 10.0 °F 0.4 °F 3.9 °F 76% 30.20 in 10.0 mi North 5.8 mph - N/A   Clear
1:53 AM 8.1 °F 1.4 °F 3.0 °F 80% 30.20 in 10.0 mi North 3.5 mph - N/A   Clear
2:53 AM 7.0 °F 0.1 °F 3.0 °F 84% 30.23 in 10.0 mi North 3.5 mph - N/A   Clear
3:53 AM 7.0 °F 0.1 °F 3.0 °F 84% 30.24 in 10.0 mi North 3.5 mph - N/A   Clear
4:53 AM 7.0 °F - 3.0 °F 84% 30.25 in 10.0 mi Calm Calm - N/A   Clear
5:53 AM 7.0 °F - 3.0 °F 84% 30.25 in 10.0 mi Calm Calm - N/A   Clear
6:53 AM 9.0 °F - 3.9 °F 80% 30.28 in 10.0 mi Calm Calm - N/A   Clear
7:53 AM 9.0 °F 2.4 °F 3.9 °F 80% 30.27 in 10.0 mi NNE 3.5 mph - N/A   Clear
8:53 AM 10.9 °F 2.9 °F 3.9 °F 73% 30.30 in 10.0 mi NE 4.6 mph - N/A   Clear
9:53 AM 12.0 °F 5.9 °F 5.0 °F 73% 30.30 in 10.0 mi ENE 3.5 mph - N/A   Clear
10:53 AM 14.0 °F 3.9 °F 7.0 °F 74% 30.28 in 10.0 mi East 6.9 mph - N/A   Clear
11:53 AM 16.0 °F 5.3 °F 7.0 °F 68% 30.25 in 10.0 mi ESE 8.1 mph - N/A   Clear
12:53 PM 18.0 °F 6.9 °F 9.0 °F 68% 30.20 in 10.0 mi East 9.2 mph - N/A   Clear
1:53 PM 19.9 °F 10.1 °F 9.0 °F 62% 30.17 in 10.0 mi East 8.1 mph - N/A   Overcast
2:53 PM 21.0 °F 12.4 °F 9.0 °F 60% 30.15 in 10.0 mi East 6.9 mph - N/A   Overcast
3:53 PM 21.9 °F 14.5 °F 9.0 °F 58% 30.15 in 10.0 mi East 5.8 mph - N/A   Overcast
4:53 PM 21.9 °F 11.7 °F 10.0 °F 60% 30.12 in 10.0 mi East 9.2 mph - N/A   Overcast
5:48 PM 21.2 °F 11.7 °F 14.0 °F 74% 30.04 in 1.8 mi East 8.1 mph - 0.00 in Snow Light Snow
5:50 PM 21.2 °F 13.6 °F 14.0 °F 74% 30.05 in 3.0 mi East 5.8 mph - 0.00 in Snow Light Snow
5:53 PM 21.0 °F 13.4 °F 14.0 °F 74% 30.10 in 3.0 mi East 5.8 mph - 0.00 in Snow Light Snow
6:08 PM 21.2 °F 12.6 °F 15.8 °F 80% 30.04 in 3.0 mi East 6.9 mph - 0.00 in Snow Light Snow
6:16 PM 21.2 °F 11.7 °F 15.8 °F 80% 30.03 in 3.0 mi East 8.1 mph - 0.00 in Snow Light Snow
6:53 PM 21.0 °F 14.6 °F 16.0 °F 81% 30.10 in 5.0 mi NE 4.6 mph - 0.00 in   Haze
7:53 PM 21.0 °F 9.3 °F 16.0 °F 81% 30.05 in 10.0 mi NE 11.5 mph - N/A   Overcast
8:53 PM 21.0 °F 9.3 °F 16.0 °F 81% 30.03 in 10.0 mi NE 11.5 mph - 0.00 in   Overcast
9:26 PM 21.2 °F 11.7 °F 17.6 °F 86% 29.99 in 5.0 mi ENE 8.1 mph - 0.00 in Rain Light Freezing Rain
9:49 PM 21.2 °F 10.1 °F 17.6 °F 86% 29.98 in 4.0 mi NE 10.4 mph - 0.01 in Rain Light Freezing Rain
9:53 PM 21.9 °F 10.4 °F 18.0 °F 85% 30.02 in 4.0 mi NE 11.5 mph - 0.01 in Rain Light Freezing Rain
10:35 PM 21.2 °F 11.7 °F 19.4 °F 93% 29.95 in 7.0 mi ENE 8.1 mph - 0.00 in   Overcast
10:45 PM 21.2 °F 10.1 °F 19.4 °F 93% 29.94 in 6.0 mi ENE 10.4 mph - 0.00 in Rain Light Freezing Rain
10:53 PM 21.9 °F 11.0 °F 19.0 °F 89% 29.99 in 5.0 mi ENE 10.4 mph - 0.01 in Rain Light Freezing Rain
11:19 PM 21.2 °F 10.9 °F 19.4 °F 93% 29.94 in 5.0 mi NE 9.2 mph - 0.02 in Rain Light Freezing Rain
11:31 PM 21.2 °F 11.7 °F 19.4 °F 93% 29.94 in 5.0 mi NE 8.1 mph - 0.03 in Rain Light Freezing Rain
11:40 PM 21.2 °F 11.7 °F 19.4 °F 93% 29.95 in 3.0 mi NNE 8.1 mph - 0.04 in   Overcast
11:53 PM 21.9 °F 12.5 °F 19.0 °F 89% 29.98 in 2.0 mi North 8.1 mph - 0.05 in   Overcast